Change the Weather History Date:

Wednesday, November 30, 2011

  Actual Average Record
Temperature  
Mean Temperature 32 °F -  
Max Temperature 39 °F 44 °F 69 °F (1998)
Min Temperature 26 °F 28 °F 17 °F (2013)
Degree Days  
Heating Degree Days 32    
Moisture  
Dew Point 28 °F    
Average Humidity 80    
Maximum Humidity 93    
Minimum Humidity 65    
Precipitation  
Precipitation 0.00 in - - ()
Sea Level Pressure  
Sea Level Pressure 29.85 in    
Wind  
Wind Speed 11 mph (WSW)    
Max Wind Speed 18 mph    
Max Gust Speed 24 mph    
Visibility 9 miles    
Events      
Averages and records for this station are not official NWS values.
T = Trace of Precipitation, MM = Missing Value Source: NWS Daily Summary

Daily Weather History Graph

Daily Weather History Graph

Search for Another Location

Airport or City:

Trip Planner

Search our weather history database for the weather conditions in past years. The results will help you decide how hot, cold, wet, or windy it might be!

Date:

Astronomy

Nov. 30, 2011 Rise Set
Actual Time 7:22 AM EST 4:56 PM EST
Civil Twilight 6:52 AM EST 5:26 PM EST
Nautical Twilight 6:19 AM EST 6:00 PM EST
Astronomical Twilight 5:46 AM EST 6:32 PM EST
Moon 11:39 AM EST (11/30) 10:52 PM EST (11/30)
Length of Visible Light 10h 33m
Length of Day
9h 33m
Waxing Crescent, 33% of the Moon is Illuminated
Nov 30
Waxing Crescent
Dec 2
First Quarter
Dec 10
Full
Dec 17
Last Quarter
Dec 24
New

Hourly Weather History & Observations

Time (EST) Temp. Windchill Dew Point Humidity Pressure Visibility Wind Dir Wind Speed Gust Speed Precip Events Conditions
12:15 AM 39.2 °F 31.2 °F 28.4 °F 65% 29.65 in 10.0 mi SW 13.8 mph 19.6 mph N/A   Overcast
12:35 AM 39.2 °F 33.6 °F 30.2 °F 70% 29.64 in 10.0 mi SW 8.1 mph - N/A   Overcast
12:55 AM 39.2 °F 32.0 °F 30.2 °F 70% 29.64 in 10.0 mi SW 11.5 mph 16.1 mph N/A   Overcast
1:15 AM 37.4 °F 30.3 °F 30.2 °F 75% 29.63 in 10.0 mi SSW 10.4 mph - N/A   Overcast
1:35 AM 37.4 °F 30.3 °F 30.2 °F 75% 29.63 in 10.0 mi SW 10.4 mph 17.3 mph N/A   Overcast
1:55 AM 37.4 °F 32.8 °F 30.2 °F 75% 29.64 in 10.0 mi SSW 5.8 mph - N/A   Overcast
2:15 AM 37.4 °F 31.4 °F 30.2 °F 75% 29.64 in 10.0 mi SW 8.1 mph - N/A   Overcast
2:35 AM 37.4 °F 29.3 °F 30.2 °F 75% 29.64 in 10.0 mi SW 12.7 mph 18.4 mph N/A   Overcast
2:55 AM 37.4 °F 28.9 °F 30.2 °F 75% 29.64 in 10.0 mi SSW 13.8 mph 20.7 mph N/A   Overcast
3:15 AM 35.6 °F 27.5 °F 32.0 °F 87% 29.64 in 10.0 mi SW 11.5 mph 16.1 mph N/A   Overcast
3:35 AM 35.6 °F 28.0 °F 30.2 °F 81% 29.64 in 10.0 mi SW 10.4 mph 19.6 mph N/A   Mostly Cloudy
3:55 AM 35.6 °F 25.9 °F 30.2 °F 81% 29.64 in 10.0 mi SW 16.1 mph 19.6 mph N/A   Overcast
4:15 AM 37.4 °F 29.3 °F 30.2 °F 75% 29.65 in 10.0 mi SW 12.7 mph 19.6 mph N/A   Overcast
4:35 AM 35.6 °F 27.1 °F 30.2 °F 81% 29.66 in 10.0 mi SW 12.7 mph 18.4 mph N/A   Overcast
4:55 AM 35.6 °F 28.6 °F 30.2 °F 81% 29.67 in 10.0 mi SW 9.2 mph 18.4 mph N/A   Overcast
5:15 AM 35.6 °F 27.5 °F 30.2 °F 81% 29.67 in 10.0 mi SW 11.5 mph 20.7 mph N/A   Mostly Cloudy
5:35 AM 35.6 °F 29.2 °F 30.2 °F 81% 29.68 in 10.0 mi SW 8.1 mph 19.6 mph N/A   Overcast
5:55 AM 35.6 °F 28.0 °F 30.2 °F 81% 29.69 in 10.0 mi SW 10.4 mph 16.1 mph N/A   Overcast
6:15 AM 35.6 °F 27.1 °F 30.2 °F 81% 29.69 in 10.0 mi SW 12.7 mph 18.4 mph N/A   Overcast
6:35 AM 35.6 °F 27.1 °F 30.2 °F 81% 29.70 in 10.0 mi SW 12.7 mph 16.1 mph N/A   Overcast
6:55 AM 33.8 °F 25.3 °F 30.2 °F 87% 29.71 in 10.0 mi SW 11.5 mph 18.4 mph N/A   Overcast
7:15 AM 33.8 °F 24.3 °F 30.2 °F 87% 29.73 in 10.0 mi WSW 13.8 mph 17.3 mph N/A   Overcast
7:35 AM 33.8 °F 24.3 °F 30.2 °F 87% 29.74 in 8.0 mi WSW 13.8 mph 19.6 mph N/A   Overcast
7:55 AM 33.8 °F 23.5 °F 30.2 °F 87% 29.75 in 5.0 mi WSW 16.1 mph 20.7 mph N/A   Overcast
8:35 AM 33.8 °F 24.3 °F 30.2 °F 87% 29.78 in 9.0 mi WSW 13.8 mph 18.4 mph N/A   Overcast
8:55 AM 33.8 °F 24.3 °F 30.2 °F 87% 29.80 in 9.0 mi WSW 13.8 mph 20.7 mph N/A   Overcast
9:35 AM 33.8 °F 24.8 °F 30.2 °F 87% 29.82 in 5.0 mi West 12.7 mph 18.4 mph N/A   Overcast
9:55 AM 33.8 °F 25.3 °F 30.2 °F 87% 29.83 in 6.0 mi West 11.5 mph 18.4 mph N/A   Overcast
10:15 AM 33.8 °F 25.8 °F 30.2 °F 87% 29.85 in 1.5 mi West 10.4 mph 18.4 mph N/A   Overcast
10:35 AM 33.8 °F 24.3 °F 30.2 °F 87% 29.86 in 10.0 mi West 13.8 mph 21.9 mph N/A   Overcast
10:55 AM 33.8 °F 25.3 °F 30.2 °F 87% 29.87 in 10.0 mi West 11.5 mph 18.4 mph N/A   Overcast
11:15 AM 33.8 °F 24.8 °F 30.2 °F 87% 29.87 in 4.0 mi West 12.7 mph 18.4 mph N/A   Overcast
11:35 AM 33.8 °F 22.8 °F 30.2 °F 87% 29.88 in 2.5 mi West 18.4 mph 24.2 mph N/A   Overcast
11:55 AM 33.8 °F 23.5 °F 30.2 °F 87% 29.88 in 10.0 mi West 16.1 mph 23.0 mph N/A   Overcast
12:15 PM 33.8 °F 23.9 °F 28.4 °F 81% 29.89 in 10.0 mi West 15.0 mph 19.6 mph N/A   Overcast
12:35 PM 33.8 °F 25.3 °F 28.4 °F 81% 29.89 in 8.0 mi West 11.5 mph 19.6 mph N/A   Overcast
12:55 PM 33.8 °F 24.3 °F 28.4 °F 81% 29.89 in 10.0 mi West 13.8 mph 23.0 mph N/A   Overcast
1:35 PM 35.6 °F 26.6 °F 28.4 °F 75% 29.91 in 10.0 mi West 13.8 mph 21.9 mph N/A   Overcast
1:55 PM 35.6 °F 26.2 °F 28.4 °F 75% 29.92 in 10.0 mi West 15.0 mph 23.0 mph N/A   Overcast
2:15 PM 35.6 °F 27.5 °F 28.4 °F 75% 29.93 in 10.0 mi West 11.5 mph 18.4 mph N/A   Overcast
2:35 PM 35.6 °F 28.6 °F 26.6 °F 70% 29.94 in 10.0 mi West 9.2 mph 20.7 mph N/A   Overcast
2:55 PM 35.6 °F 28.6 °F 28.4 °F 75% 29.95 in 10.0 mi West 9.2 mph 19.6 mph N/A   Overcast
3:15 PM 35.6 °F 28.0 °F 28.4 °F 75% 29.96 in 10.0 mi West 10.4 mph 19.6 mph N/A   Overcast
3:35 PM 35.6 °F 26.2 °F 26.6 °F 70% 29.98 in 10.0 mi WSW 15.0 mph 20.7 mph N/A   Overcast
3:55 PM 35.6 °F 27.1 °F 26.6 °F 70% 29.99 in 10.0 mi West 12.7 mph 18.4 mph N/A   Overcast
4:15 PM 35.6 °F 28.0 °F 24.8 °F 65% 30.00 in 10.0 mi WSW 10.4 mph 17.3 mph N/A   Mostly Cloudy
4:35 PM 35.6 °F 29.2 °F 24.8 °F 65% 30.01 in 10.0 mi WSW 8.1 mph - N/A   Overcast
4:55 PM 33.8 °F 27.7 °F 24.8 °F 70% 30.03 in 10.0 mi SW 6.9 mph - N/A   Mostly Cloudy
5:15 PM 33.8 °F 29.6 °F 24.8 °F 70% 30.05 in 10.0 mi WSW 4.6 mph - N/A   Overcast
5:35 PM 33.8 °F 29.6 °F 24.8 °F 70% 30.06 in 10.0 mi SW 4.6 mph - N/A   Overcast
5:55 PM 33.8 °F 29.6 °F 24.8 °F 70% 30.07 in 10.0 mi WSW 4.6 mph - N/A   Scattered Clouds
6:15 PM 32.0 °F 28.7 °F 24.8 °F 75% 30.07 in 10.0 mi SW 3.5 mph - N/A   Clear
6:35 PM 30.2 °F - 24.8 °F 80% 30.08 in 10.0 mi Calm Calm - N/A   Clear
6:55 PM 30.2 °F 26.7 °F 24.8 °F 80% 30.10 in 10.0 mi SW 3.5 mph - N/A   Mostly Cloudy
7:15 PM 30.2 °F - 26.6 °F 86% 30.10 in 10.0 mi Calm Calm - N/A   Scattered Clouds
7:35 PM 28.4 °F - 26.6 °F 93% 30.11 in 10.0 mi Calm Calm - N/A   Clear
7:55 PM 28.4 °F - 24.8 °F 86% 30.12 in 10.0 mi Calm Calm - N/A   Partly Cloudy
8:15 PM 28.4 °F 24.6 °F 24.8 °F 86% 30.12 in 10.0 mi WSW 3.5 mph - N/A   Partly Cloudy
8:35 PM 26.6 °F 22.6 °F 24.8 °F 93% 30.13 in 10.0 mi WSW 3.5 mph - N/A   Partly Cloudy
9:15 PM 26.6 °F - 24.8 °F 93% 30.15 in 10.0 mi Calm Calm - N/A   Partly Cloudy
9:35 PM 26.6 °F - 24.8 °F 93% 30.15 in 10.0 mi Calm Calm - N/A   Clear
9:55 PM 26.6 °F - 24.8 °F 93% 30.16 in 10.0 mi Calm Calm - N/A   Clear
10:35 PM 26.6 °F - 23.0 °F 86% 30.17 in 10.0 mi Calm Calm - N/A   Clear
10:55 PM 24.8 °F - 23.0 °F 93% 30.17 in 10.0 mi Calm Calm - N/A   Clear
11:15 PM 26.6 °F - 23.0 °F 86% 30.19 in 10.0 mi Calm Calm - N/A   Partly Cloudy
11:35 PM 24.8 °F - 21.2 °F 86% 30.18 in 10.0 mi Calm Calm - N/A   Partly Cloudy